• In Hungary
  • List of Countries
  • For 7 days
  • Water Temperature
  • Satellite Maps
  • Weather Map
  • News
  • Weather Widgets
  • user-avatar
    Login

    Hourly Weather Malyy Shaplak

    Today, 25 February, Sunday

    Time Temperature Precipitation Wind Pressure Humidity
    00:00 -21°C° 0 mm 1 mps 759 mmHg 97%
    01:00 -22°C° 0 mm 1 mps 759 mmHg 98%
    02:00 -22°C° 0 mm 1 mps 759 mmHg 98%
    03:00 -22°C° 0 mm 1 mps 758 mmHg 98%
    04:00 -22°C° 0 mm 1 mps 758 mmHg 99%
    05:00 -23°C° 0 mm 1 mps 758 mmHg 99%
    06:00 -23°C° 0 mm 1 mps 758 mmHg 99%
    07:00 -22°C° 0 mm 1 mps 758 mmHg 98%
    08:00 -21°C° 0 mm 1 mps 758 mmHg 97%
    09:00 -20°C° 0 mm 1 mps 758 mmHg 95%
    10:00 -18°C° 0 mm 1 mps 758 mmHg 92%
    11:00 -17°C° 0 mm 1 mps 758 mmHg 89%
    12:00 -16°C° 0 mm 1 mps 758 mmHg 87%
    13:00 -15°C° 0 mm 1 mps 758 mmHg 87%
    14:00 -15°C° 0 mm 1 mps 758 mmHg 86%
    15:00 -15°C° 0 mm 1 mps 758 mmHg 86%
    16:00 -16°C° 0 mm 1 mps 758 mmHg 89%
    17:00 -18°C° 0 mm 1 mps 758 mmHg 92%
    18:00 -20°C° 0 mm 1 mps 758 mmHg 95%
    19:00 -20°C° 0 mm 1 mps 758 mmHg 96%
    20:00 -21°C° 0 mm 1 mps 758 mmHg 96%
    21:00 -22°C° 0 mm 1 mps 758 mmHg 96%
    22:00 -22°C° 0 mm 1 mps 758 mmHg 96%
    23:00 -23°C° 0 mm 1 mps 758 mmHg 97%

    Tomorrow, 26 February, Monday

    Time Temperature Precipitation Wind Pressure Humidity
    00:00 -23°C° 0 mm 1 mps 758 mmHg 97%
    01:00 -23°C° 0 mm 1 mps 758 mmHg 97%
    02:00 -23°C° 0 mm 1 mps 758 mmHg 97%
    03:00 -24°C° 0 mm 1 mps 759 mmHg 98%
    04:00 -27°C° 0 mm 2 mps 759 mmHg 98%
    05:00 -27°C° 0 mm 2 mps 759 mmHg 98%
    06:00 -27°C° 0 mm 2 mps 759 mmHg 98%
    07:00 -26°C° 0 mm 2 mps 759 mmHg 97%
    08:00 -25°C° 0 mm 2 mps 759 mmHg 96%
    09:00 -24°C° 0 mm 2 mps 759 mmHg 96%
    10:00 -23°C° 0 mm 2 mps 759 mmHg 94%
    11:00 -21°C° 0 mm 2 mps 759 mmHg 92%
    12:00 -19°C° 0 mm 2 mps 759 mmHg 90%
    13:00 -21°C° 0 mm 3 mps 759 mmHg 89%
    14:00 -19°C° 0 mm 3 mps 759 mmHg 89%
    15:00 -19°C° 0 mm 3 mps 759 mmHg 89%
    16:00 -21°C° 0 mm 3 mps 759 mmHg 91%
    17:00 -22°C° 0 mm 3 mps 759 mmHg 93%
    18:00 -23°C° 0 mm 3 mps 759 mmHg 95%
    19:00 -24°C° 0 mm 3 mps 759 mmHg 96%
    20:00 -24°C° 0 mm 3 mps 759 mmHg 96%
    21:00 -24°C° 0 mm 3 mps 759 mmHg 96%
    22:00 -24°C° 0 mm 3 mps 759 mmHg 96%
    23:00 -24°C° 0 mm 3 mps 759 mmHg 95%

    Day after tomorrow, 27 February, Tuesday

    Time Temperature Precipitation Wind Pressure Humidity
    00:00 -24°C° 0 mm 3 mps 759 mmHg 95%
    01:00 -24°C° 0 mm 3 mps 759 mmHg 95%
    02:00 -25°C° 0 mm 3 mps 760 mmHg 95%
    03:00 -25°C° 0 mm 3 mps 760 mmHg 94%
    04:00 -26°C° 0 mm 4 mps 760 mmHg 94%
    05:00 -26°C° 0 mm 4 mps 760 mmHg 94%
    06:00 -26°C° 0 mm 4 mps 760 mmHg 94%
    07:00 -26°C° 0 mm 4 mps 760 mmHg 93%
    08:00 -25°C° 0 mm 4 mps 760 mmHg 92%
    09:00 -25°C° 0 mm 4 mps 760 mmHg 91%
    10:00 -24°C° 0 mm 4 mps 761 mmHg 89%
    11:00 -23°C° 0 mm 4 mps 761 mmHg 88%
    12:00 -23°C° 0 mm 4 mps 761 mmHg 86%
    13:00 -22°C° 0 mm 4 mps 762 mmHg 86%
    14:00 -22°C° 0 mm 4 mps 762 mmHg 86%
    15:00 -21°C° 0 mm 5 mps 762 mmHg 85%
    16:00 -22°C° 0 mm 4 mps 763 mmHg 88%
    17:00 -23°C° 0 mm 4 mps 763 mmHg 90%
    18:00 -23°C° 0 mm 3 mps 763 mmHg 93%
    19:00 -24°C° 0 mm 3 mps 764 mmHg 93%
    20:00 -24°C° 0 mm 3 mps 764 mmHg 94%
    21:00 -25°C° 0 mm 3 mps 764 mmHg 94%
    22:00 -25°C° 0 mm 3 mps 765 mmHg 94%
    23:00 -26°C° 0 mm 3 mps 765 mmHg 95%

    28 February, Wednesday

    Time Temperature Precipitation Wind Pressure Humidity
    00:00 -26°C° 0 mm 3 mps 765 mmHg 95%
    01:00 -27°C° 0 mm 3 mps 765 mmHg 95%
    02:00 -27°C° 0 mm 3 mps 766 mmHg 95%
    03:00 -27°C° 0 mm 3 mps 766 mmHg 96%
    04:00 -27°C° 0 mm 3 mps 766 mmHg 96%
    05:00 -27°C° 0 mm 3 mps 766 mmHg 96%
    06:00 -29°C° 0 mm 3 mps 767 mmHg 96%
    07:00 -27°C° 0 mm 3 mps 767 mmHg 95%
    08:00 -26°C° 0 mm 3 mps 767 mmHg 94%
    09:00 -25°C° 0 mm 3 mps 767 mmHg 93%
    10:00 -23°C° 0 mm 3 mps 768 mmHg 92%
    11:00 -22°C° 0 mm 3 mps 768 mmHg 90%
    12:00 -19°C° 0 mm 3 mps 768 mmHg 88%
    13:00 -19°C° 0 mm 3 mps 768 mmHg 88%
    14:00 -18°C° 0 mm 3 mps 768 mmHg 87%
    15:00 -17°C° 0 mm 3 mps 768 mmHg 87%
    16:00 -18°C° 0 mm 3 mps 768 mmHg 89%
    17:00 -19°C° 0 mm 2 mps 768 mmHg 92%
    18:00 -20°C° 0 mm 2 mps 768 mmHg 94%
    19:00 -20°C° 0 mm 2 mps 768 mmHg 95%
    20:00 -21°C° 0 mm 2 mps 768 mmHg 96%
    21:00 -21°C° 0 mm 2 mps 768 mmHg 97%
    22:00 -19°C° 0 mm 1 mps 768 mmHg 98%
    23:00 -19°C° 0 mm 1 mps 768 mmHg 99%

    1 March, Thursday

    Time Temperature Precipitation Wind Pressure Humidity
    00:00 -20°C° 0 mm 1 mps 768 mmHg 99%
    01:00 -19°C° 0 mm 1 mps 768 mmHg 99%
    02:00 -19°C° 0 mm 1 mps 768 mmHg 99%
    03:00 -21°C° 0 mm 2 mps 767 mmHg 99%
    04:00 -21°C° 0 mm 2 mps 767 mmHg 99%
    05:00 -21°C° 0 mm 2 mps 767 mmHg 99%
    06:00 -21°C° 0 mm 2 mps 766 mmHg 99%
    07:00 -20°C° 0 mm 2 mps 766 mmHg 98%
    08:00 -21°C° 0 mm 3 mps 766 mmHg 97%
    09:00 -18°C° 0 mm 3 mps 766 mmHg 96%
    10:00 -17°C° 0 mm 3 mps 765 mmHg 95%
    11:00 -15°C° 0 mm 3 mps 765 mmHg 94%
    12:00 -15°C° 0 mm 4 mps 765 mmHg 92%
    13:00 -14°C° 0 mm 4 mps 764 mmHg 92%
    14:00 -12°C° 0 mm 4 mps 764 mmHg 91%
    15:00 -11°C° 0 mm 4 mps 764 mmHg 90%
    16:00 -12°C° 0 mm 3 mps 763 mmHg 92%
    17:00 -13°C° 0 mm 3 mps 763 mmHg 93%
    18:00 -14°C° 0 mm 3 mps 763 mmHg 95%
    19:00 -14°C° 0 mm 2 mps 763 mmHg 95%
    20:00 -14°C° 0 mm 2 mps 763 mmHg 96%
    21:00 -15°C° 0 mm 2 mps 763 mmHg 96%
    22:00 -15°C° 0 mm 2 mps 763 mmHg 97%
    23:00 -15°C° 0 mm 2 mps 763 mmHg 97%

    2 March, Friday

    Time Temperature Precipitation Wind Pressure Humidity
    00:00 -15°C° 0 mm 2 mps 763 mmHg 97%
    01:00 -14°C° 0 mm 2 mps 763 mmHg 97%
    02:00 -13°C° 0 mm 2 mps 763 mmHg 97%
    03:00 -11°C° 0 mm 1 mps 763 mmHg 97%
    04:00 -11°C° 0 mm 1 mps 763 mmHg 97%
    05:00 -10°C° 0 mm 1 mps 763 mmHg 97%
    06:00 -10°C° 0 mm 1 mps 763 mmHg 97%
    07:00 -10°C° 0 mm 1 mps 763 mmHg 96%
    08:00 -9°C° 0 mm 1 mps 763 mmHg 95%
    09:00 -8°C° 0 mm 1 mps 763 mmHg 94%
    10:00 -7°C° 0 mm 1 mps 762 mmHg 93%
    11:00 -7°C° 0 mm 2 mps 762 mmHg 93%
    12:00 -6°C° 0 mm 2 mps 762 mmHg 92%
    13:00 -6°C° 0 mm 2 mps 762 mmHg 92%
    14:00 -6°C° 0 mm 2 mps 761 mmHg 92%
    15:00 -5°C° 0 mm 2 mps 761 mmHg 92%
    16:00 -6°C° 0 mm 2 mps 761 mmHg 93%
    17:00 -6°C° 0 mm 2 mps 761 mmHg 94%
    18:00 -7°C° 0 mm 2 mps 761 mmHg 94%
    19:00 -7°C° 0 mm 2 mps 760 mmHg 95%
    20:00 -7°C° 0 mm 2 mps 760 mmHg 95%
    21:00 -8°C° 0 mm 2 mps 760 mmHg 96%
    22:00 -8°C° 0 mm 2 mps 760 mmHg 96%
    23:00 -9°C° 0 mm 2 mps 760 mmHg 96%
    Show more